• In Uzbekistan
  • List of Countries
  • For 7 days
  • Water Temperature
  • Weather Map
  • Weather Widgets
  • user-avatar
    Login

    Hourly Weather Yerevan

    Today, 6 April, Monday

    Time Temperature Precipitation Wind Pressure Humidity
    00:00 +15°C° 0 mm 1 mps 692 mmHg 48%
    01:00 +15°C° 0 mm 1 mps 691 mmHg 50%
    02:00 +14°C° 0 mm 1 mps 691 mmHg 53%
    03:00 +14°C° 0 mm 1 mps 690 mmHg 57%
    04:00 +14°C° 0 mm 1 mps 690 mmHg 57%
    05:00 +14°C° 0 mm 1 mps 690 mmHg 58%
    06:00 +12°C° 0 mm 0 mps 689 mmHg 59%
    07:00 +15°C° 0 mm 1 mps 690 mmHg 54%
    08:00 +16°C° 0 mm 1 mps 690 mmHg 50%
    09:00 +17°C° 0 mm 2 mps 690 mmHg 45%
    10:00 +17°C° 0.2 mm 2 mps 690 mmHg 49%
    11:00 +16°C° 0.2 mm 3 mps 690 mmHg 53%
    12:00 +15°C° 0.2 mm 4 mps 690 mmHg 57%
    13:00 +14°C° 0.8 mm 3 mps 690 mmHg 62%
    14:00 +15°C° 0.8 mm 2 mps 689 mmHg 66%
    15:00 +14°C° 0.8 mm 2 mps 689 mmHg 70%
    16:00 +14°C° 0.3 mm 2 mps 689 mmHg 70%
    17:00 +14°C° 0.3 mm 1 mps 689 mmHg 70%
    18:00 +14°C° 0.3 mm 1 mps 689 mmHg 70%
    19:00 +13°C° 0.1 mm 1 mps 689 mmHg 72%
    20:00 +13°C° 0.1 mm 1 mps 689 mmHg 73%
    21:00 +13°C° 0.1 mm 2 mps 689 mmHg 74%
    22:00 +13°C° 0.1 mm 1 mps 690 mmHg 76%
    23:00 +13°C° 0.1 mm 1 mps 690 mmHg 78%

    Tomorrow, 7 April, Tuesday

    Time Temperature Precipitation Wind Pressure Humidity
    00:00 +11°C° 0.1 mm 0 mps 690 mmHg 80%
    01:00 +12°C° 0.1 mm 1 mps 690 mmHg 79%
    02:00 +12°C° 0.1 mm 1 mps 690 mmHg 78%
    03:00 +12°C° 0.1 mm 2 mps 690 mmHg 77%
    04:00 +12°C° 0.4 mm 2 mps 690 mmHg 77%
    05:00 +10°C° 0.4 mm 3 mps 690 mmHg 77%
    06:00 +10°C° 0.4 mm 3 mps 690 mmHg 76%
    07:00 +10°C° 0.3 mm 3 mps 690 mmHg 72%
    08:00 +11°C° 0.3 mm 3 mps 690 mmHg 68%
    09:00 +11°C° 0.3 mm 3 mps 691 mmHg 64%
    10:00 +12°C° 0 mm 3 mps 691 mmHg 61%
    11:00 +12°C° 0 mm 3 mps 691 mmHg 57%
    12:00 +14°C° 0 mm 2 mps 691 mmHg 54%
    13:00 +14°C° 0 mm 2 mps 691 mmHg 50%
    14:00 +14°C° 0 mm 3 mps 691 mmHg 47%
    15:00 +16°C° 0 mm 3 mps 692 mmHg 43%
    16:00 +14°C° 0 mm 4 mps 692 mmHg 46%
    17:00 +13°C° 0 mm 4 mps 692 mmHg 50%
    18:00 +12°C° 0 mm 5 mps 692 mmHg 53%
    19:00 +10°C° 0 mm 5 mps 692 mmHg 55%
    20:00 +10°C° 0 mm 4 mps 692 mmHg 57%
    21:00 +8°C° 0 mm 4 mps 693 mmHg 59%
    22:00 +8°C° 0 mm 3 mps 693 mmHg 58%
    23:00 +8°C° 0 mm 3 mps 694 mmHg 57%

    Day after tomorrow, 8 April, Wednesday

    Time Temperature Precipitation Wind Pressure Humidity
    00:00 +8°C° 0 mm 3 mps 694 mmHg 55%
    01:00 +7°C° 0 mm 2 mps 694 mmHg 55%
    02:00 +7°C° 0 mm 2 mps 694 mmHg 55%
    03:00 +6°C° 0 mm 2 mps 694 mmHg 55%
    04:00 +6°C° 0 mm 2 mps 694 mmHg 56%
    05:00 +5°C° 0 mm 2 mps 695 mmHg 57%
    06:00 +5°C° 0 mm 2 mps 695 mmHg 58%
    07:00 +7°C° 0 mm 1 mps 695 mmHg 54%
    08:00 +8°C° 0 mm 1 mps 695 mmHg 50%
    09:00 +9°C° 0 mm 1 mps 695 mmHg 45%
    10:00 +9°C° 0 mm 2 mps 695 mmHg 44%
    11:00 +10°C° 0 mm 2 mps 695 mmHg 42%
    12:00 +12°C° 0 mm 3 mps 695 mmHg 41%
    13:00 +12°C° 0 mm 3 mps 694 mmHg 39%
    14:00 +13°C° 0 mm 3 mps 694 mmHg 38%
    15:00 +14°C° 0 mm 3 mps 693 mmHg 36%
    16:00 +13°C° 0 mm 3 mps 693 mmHg 38%
    17:00 +13°C° 0 mm 4 mps 693 mmHg 39%
    18:00 +12°C° 0 mm 4 mps 693 mmHg 41%
    19:00 +11°C° 0 mm 4 mps 693 mmHg 43%
    20:00 +10°C° 0 mm 4 mps 693 mmHg 46%
    21:00 +8°C° 0 mm 4 mps 694 mmHg 49%
    22:00 +8°C° 0 mm 3 mps 693 mmHg 51%
    23:00 +8°C° 0 mm 3 mps 693 mmHg 53%

    9 April, Thursday

    Time Temperature Precipitation Wind Pressure Humidity
    00:00 +7°C° 0 mm 2 mps 693 mmHg 55%
    01:00 +7°C° 0 mm 2 mps 692 mmHg 57%
    02:00 +7°C° 0 mm 1 mps 692 mmHg 59%
    03:00 +7°C° 0 mm 1 mps 691 mmHg 61%
    04:00 +7°C° 0 mm 1 mps 691 mmHg 62%
    05:00 +6°C° 0 mm 1 mps 690 mmHg 63%
    06:00 +6°C° 0 mm 1 mps 690 mmHg 64%
    07:00 +8°C° 0 mm 1 mps 690 mmHg 59%
    08:00 +9°C° 0 mm 1 mps 689 mmHg 54%
    09:00 +10°C° 0 mm 1 mps 689 mmHg 49%
    10:00 +12°C° 0 mm 1 mps 688 mmHg 46%
    11:00 +13°C° 0 mm 2 mps 688 mmHg 43%
    12:00 +14°C° 0 mm 2 mps 688 mmHg 40%
    13:00 +15°C° 0 mm 2 mps 687 mmHg 39%
    14:00 +16°C° 0 mm 2 mps 687 mmHg 37%
    15:00 +17°C° 0 mm 2 mps 687 mmHg 36%
    16:00 +17°C° 0 mm 2 mps 687 mmHg 38%
    17:00 +16°C° 0 mm 2 mps 687 mmHg 39%
    18:00 +16°C° 0 mm 1 mps 687 mmHg 41%
    19:00 +15°C° 0 mm 1 mps 687 mmHg 45%
    20:00 +14°C° 0 mm 1 mps 687 mmHg 48%
    21:00 +13°C° 0 mm 1 mps 687 mmHg 52%
    22:00 +12°C° 0 mm 1 mps 687 mmHg 54%
    23:00 +12°C° 0 mm 2 mps 687 mmHg 57%

    10 April, Friday

    Time Temperature Precipitation Wind Pressure Humidity
    00:00 +10°C° 0 mm 2 mps 687 mmHg 59%
    01:00 +9°C° 0 mm 2 mps 687 mmHg 61%
    02:00 +10°C° 0 mm 1 mps 686 mmHg 63%
    03:00 +9°C° 0 mm 1 mps 686 mmHg 65%
    04:00 +9°C° 0 mm 1 mps 686 mmHg 66%
    05:00 +9°C° 0 mm 1 mps 686 mmHg 67%
    06:00 +9°C° 0 mm 1 mps 686 mmHg 68%
    07:00 +10°C° 0 mm 1 mps 686 mmHg 63%
    08:00 +12°C° 0 mm 1 mps 686 mmHg 57%
    09:00 +13°C° 0 mm 2 mps 686 mmHg 51%
    10:00 +14°C° 0 mm 2 mps 686 mmHg 48%
    11:00 +16°C° 0 mm 2 mps 686 mmHg 44%
    12:00 +17°C° 0 mm 3 mps 686 mmHg 41%
    13:00 +18°C° 0 mm 4 mps 685 mmHg 40%
    14:00 +17°C° 0 mm 5 mps 685 mmHg 40%
    15:00 +19°C° 0 mm 6 mps 685 mmHg 40%
    16:00 +17°C° 0 mm 5 mps 685 mmHg 45%
    17:00 +17°C° 0 mm 4 mps 685 mmHg 50%
    18:00 +16°C° 0 mm 3 mps 684 mmHg 55%
    19:00 +14°C° 0 mm 3 mps 685 mmHg 57%
    20:00 +13°C° 0 mm 3 mps 685 mmHg 60%
    21:00 +13°C° 0 mm 3 mps 685 mmHg 62%
    22:00 +13°C° 0 mm 3 mps 685 mmHg 64%
    23:00 +12°C° 0 mm 3 mps 685 mmHg 66%

    11 April, Saturday

    Time Temperature Precipitation Wind Pressure Humidity
    00:00 +12°C° 0 mm 3 mps 685 mmHg 68%
    01:00 +12°C° 0.5 mm 2 mps 685 mmHg 73%
    02:00 +12°C° 0.5 mm 2 mps 685 mmHg 77%
    03:00 +11°C° 0.5 mm 1 mps 685 mmHg 82%
    04:00 +11°C° 0.8 mm 1 mps 685 mmHg 82%
    05:00 +10°C° 0.8 mm 2 mps 685 mmHg 82%
    06:00 +9°C° 0.8 mm 2 mps 685 mmHg 82%
    07:00 +10°C° 0.1 mm 2 mps 685 mmHg 78%
    08:00 +12°C° 0.1 mm 2 mps 685 mmHg 73%
    09:00 +13°C° 0.1 mm 2 mps 685 mmHg 68%
    10:00 +14°C° 0.1 mm 2 mps 685 mmHg 62%
    11:00 +15°C° 0.1 mm 2 mps 685 mmHg 55%
    12:00 +16°C° 0.1 mm 2 mps 685 mmHg 48%
    13:00 +18°C° 0.2 mm 1 mps 685 mmHg 45%
    14:00 +19°C° 0.2 mm 1 mps 685 mmHg 42%
    15:00 +19°C° 0.2 mm 1 mps 685 mmHg 39%
    16:00 +17°C° 0.4 mm 2 mps 685 mmHg 44%
    17:00 +16°C° 0.4 mm 3 mps 685 mmHg 48%
    18:00 +14°C° 0.4 mm 4 mps 685 mmHg 53%
    19:00 +13°C° 0.6 mm 4 mps 686 mmHg 57%
    20:00 +12°C° 0.6 mm 3 mps 686 mmHg 62%
    21:00 +12°C° 0.6 mm 3 mps 687 mmHg 66%
    22:00 +12°C° 0 mm 2 mps 687 mmHg 66%
    23:00 +12°C° 0 mm 2 mps 687 mmHg 66%
    Show more